DMSP 5D-2 F13 DEB

Satellite information

Favourite Embed

Satellite Type and Status

DEBRISIN ORBIT

Key statistics

Satellite DMSP 5D-2 F13 DEB at a glance.

Uptime

11173

Days in orbit

Revolutions

≈ 15.1

Per day

Orbit

SSO

Sun Synchronous Orbit

Inclination

98.7

Latest

Satellite identification and parameters

Extended collection of information and parameters for DMSP 5D-2 F13 DEB.

Object identification

Identified? True

Debris? True

Object name: DMSP 5D-2 F13 DEB

International designator: 1995-015FL

Object number (NORAD): 40672

Object ID (CCSDS): 40672

Country: UNITED STATES OF AMERICA (US)

Current information (Y/N): Y

RCS size: SMALL

Orbital parameters

Period: 95.067 minutes

Inclination: 98.6718 deg

SMA: 6899.959 km

Apoapsis: 527.561 km

Periapsis: 516.087 km

RAAN: 344.4636 deg

Eccentricy: 0.00083147

Argument of periapsis: 235.1061 deg

Mean anomaly: 124.9387 deg

Mean motion: 15.14722333 rev/day

Mean motion (dot): 0.00378399 rev/day2

B* drag term: 0.01938853 1/REarth

Two-line elements (TLE)

Creation date: Oct. 3, 2025, 6:13 p.m.

Reference frame: TEME

Reference center: EARTH

Epoch: Sept. 24, 2025, 4:46 a.m. UTC

TLE line 0: 0 DMSP 5D-2 F13 DEB

TLE line 1: 1 40672U 95015FL 25267.19905091 .00378399 00000-0 19389-1 0 9995

TLE line 2: 2 40672 98.6718 344.4636 0008315 235.1061 124.9387 15.14722333545745

Live tracking on map

Real-time ground track for satellite DMSP 5D-2 F13 DEB.

In-orbit conjunctions

A list of the most updated potential collisions computed for object DMSP 5D-2 F13 DEB.

Target Orbit TCA Probability of collision Miss distance Type
TAURUS R/B SSO 2024-07-06 20:57:35 0.0001469294 335.0 (m) ROCKET BODY

Associated space launch

Military meteorological satellite

DMSP 5D-2 F13 DEB was lifted into orbit during the mission ‘Atlas E | DMSP-5D2 F13’, on board a Atlas E space rocket.

The launch took place on March 24, 1995, 2:05 p.m. from Space Launch Complex 3W.

For more information about the launch, click the button.

Launch to space Atlas E | DMSP-5D2 F13
Atlas E | DMSP-5D2 F13

Agency: N/A

Status: Launch Successful

Launch date: March 24, 1995, 2:05 p.m. UTC

Rocket: Atlas E

Launch pad: Space Launch Complex 3W

Location: Vandenberg SFB, CA, USA

...

Latest news about this satellite

There are no fresh news available about this satellite. Check back as we update our databases every day.


Newsletter sign-up

Weekly statistics, charts and insights to help you stay on top of the space industry.